User: anonymous   Login
Location: Unspecified
(0.0000°N, 0.0000°E)
Time: 15:19:17
(UTC+00:00)
Language:

STPSAT 1 - Orbit

View from above orbital plane
View from above orbital plane
View from above satellite
View from above satellite

Ground track
Ground track

The orbit data is extracted from the following two-line orbital elements,

1 30775U 07006D   18231.60738740 +.00000951 +00000-0 +37772-4 0  9990
2 30775 035.4284 321.3074 0003714 207.2539 152.7990 15.26271849633047
Epoch (UTC): 19 August 2018 14:34:38
Eccentricity: 0.0003714
inclination: 35.4284°
perigee height: 484 km
apogee height: 489 km
right ascension of ascending node: 321.3074°
argument of perigee: 207.2539°
revolutions per day: 15.26271849
mean anomaly at epoch: 152.7990°
orbit number at epoch: 63304

The dashed part of the orbit path shows where the satellite is in the earth's shadow,  

DLR